Voltar ao catálogo

STARLINK-31849

AtivoComunicaçõesVLEO
NORAD 59734·PAYLOAD·🇺🇸 United States

Lançado May 13, 2024 de Cape Canaveral Space Force Station

Loading…

Próximas Passagens (próximas 24 horas)

TLE

AtualizadoSource: CelesTrak SupGP

Época: Sep 15, 2026, 02:30 UTC

1 59734C 24090E   26258.10465278 -.00077634  00000+0 -28119-2 0  2588
2 59734  43.0016 186.8929 0001338 278.0926 252.0123 15.27616919    19

Acompanhe STARLINK-31849 em tempo real com AllMySat

Download on the App Store